TimeEDT,TemperatureF,Dew PointF,Humidity,Sea Level PressureIn,VisibilityMPH,Wind Direction,Wind SpeedMPH,Gust SpeedMPH,PrecipitationIn,Events,Conditions,WindDirDegrees,DateUTC
12:29 AM,48.2,46.4,93,30.03,7.0,SSE,4.6,-,N/A,,Overcast,160,2012-10-10 04:29:00
12:53 AM,48.0,46.0,93,30.04,7.0,Variable,4.6,-,N/A,,Overcast,0,2012-10-10 04:53:00
1:16 AM,48.2,46.4,93,30.02,7.0,South,3.5,-,N/A,,Overcast,180,2012-10-10 05:16:00
1:25 AM,48.2,46.4,93,30.02,6.0,Calm,Calm,-,N/A,,Overcast,0,2012-10-10 05:25:00
1:53 AM,48.9,46.9,93,30.02,6.0,SSW,3.5,-,0.00,,Overcast,200,2012-10-10 05:53:00
2:53 AM,48.9,46.9,93,29.99,4.0,South,5.8,-,0.01,,Overcast,170,2012-10-10 06:53:00
3:53 AM,48.9,48.0,97,29.98,5.0,South,6.9,-,0.00,,Overcast,170,2012-10-10 07:53:00
4:09 AM,48.2,48.2,100,29.96,2.5,South,5.8,-,N/A,,Overcast,170,2012-10-10 08:09:00
4:43 AM,48.2,48.2,100,29.95,1.2,South,3.5,-,N/A,,Overcast,170,2012-10-10 08:43:00
4:53 AM,48.9,48.0,97,29.96,3.0,SSE,4.6,-,N/A,,Overcast,160,2012-10-10 08:53:00
5:37 AM,48.2,48.2,100,29.94,2.5,SSW,4.6,-,0.02,Rain,Light Rain,200,2012-10-10 09:37:00
5:53 AM,50.0,48.0,93,29.95,2.5,SSW,4.6,-,0.03,Rain,Light Rain,200,2012-10-10 09:53:00
6:05 AM,50.0,48.2,94,29.94,4.0,South,5.8,-,0.01,Rain,Light Rain,190,2012-10-10 10:05:00
6:20 AM,50.0,48.2,94,29.94,2.5,South,5.8,-,0.03,Rain,Light Rain,180,2012-10-10 10:20:00
6:35 AM,50.0,48.2,94,29.94,3.0,South,5.8,-,0.04,Rain,Light Rain,190,2012-10-10 10:35:00
6:53 AM,50.0,48.0,93,29.95,9.0,South,5.8,-,0.04,,Overcast,180,2012-10-10 10:53:00
7:53 AM,50.0,48.0,93,29.93,5.0,South,8.1,-,N/A,,Overcast,170,2012-10-10 11:53:00
8:53 AM,50.0,48.9,96,29.92,5.0,South,6.9,-,0.01,Rain,Light Rain,190,2012-10-10 12:53:00
9:26 AM,51.8,48.2,88,29.90,10.0,SSW,9.2,-,0.00,,Overcast,210,2012-10-10 13:26:00
9:53 AM,51.1,48.9,92,29.90,10.0,SSW,9.2,-,0.00,,Overcast,210,2012-10-10 13:53:00
10:35 AM,53.6,48.2,82,29.87,10.0,SSW,9.2,20.7,N/A,,Overcast,200,2012-10-10 14:35:00
10:53 AM,53.1,48.9,86,29.88,10.0,SW,10.4,17.3,N/A,,Overcast,220,2012-10-10 14:53:00
11:20 AM,53.6,46.4,77,29.86,10.0,WSW,17.3,24.2,N/A,,Overcast,240,2012-10-10 15:20:00
11:35 AM,53.6,42.8,67,29.86,10.0,SW,11.5,27.6,N/A,,Mostly Cloudy,220,2012-10-10 15:35:00
11:53 AM,55.0,44.1,67,29.86,10.0,WSW,19.6,26.5,N/A,,Scattered Clouds,240,2012-10-10 15:53:00
12:53 PM,55.0,42.1,62,29.84,10.0,SW,13.8,21.9,N/A,,Partly Cloudy,230,2012-10-10 16:53:00
1:53 PM,55.0,39.9,57,29.82,10.0,SW,12.7,16.1,N/A,,Mostly Cloudy,220,2012-10-10 17:53:00
2:53 PM,53.1,39.0,59,29.81,10.0,SW,8.1,-,N/A,,Overcast,220,2012-10-10 18:53:00
3:53 PM,53.1,39.9,61,29.80,10.0,SW,8.1,-,N/A,,Overcast,220,2012-10-10 19:53:00
4:53 PM,52.0,42.1,69,29.81,10.0,West,6.9,-,0.00,,Overcast,280,2012-10-10 20:53:00
5:19 PM,51.8,42.8,71,29.81,10.0,West,10.4,18.4,N/A,,Overcast,280,2012-10-10 21:19:00
5:31 PM,51.8,41.0,67,29.81,10.0,WNW,11.5,19.6,N/A,,Overcast,290,2012-10-10 21:31:00
5:43 PM,51.8,39.2,62,29.82,10.0,NW,13.8,23.0,N/A,,Overcast,320,2012-10-10 21:43:00
5:53 PM,50.0,39.9,68,29.85,10.0,NNW,18.4,23.0,N/A,,Overcast,330,2012-10-10 21:53:00
6:29 PM,46.4,35.6,66,29.86,10.0,WNW,10.4,25.3,N/A,,Overcast,300,2012-10-10 22:29:00
6:53 PM,45.0,37.9,76,29.88,10.0,WNW,6.9,-,0.00,Rain,Light Rain,300,2012-10-10 22:53:00
7:53 PM,43.0,37.9,82,29.91,10.0,West,6.9,-,0.00,,Partly Cloudy,270,2012-10-10 23:53:00
8:53 PM,42.1,37.9,85,29.93,10.0,West,8.1,-,N/A,,Scattered Clouds,260,2012-10-11 00:53:00
9:53 PM,42.1,37.0,82,29.94,10.0,WSW,8.1,-,N/A,,Overcast,250,2012-10-11 01:53:00
10:53 PM,42.1,36.0,79,29.96,10.0,West,9.2,-,N/A,,Overcast,260,2012-10-11 02:53:00
11:53 PM,42.1,36.0,79,29.96,10.0,West,11.5,-,N/A,,Overcast,270,2012-10-11 03:53:00